| time (UTC) | temp F | wind direction | speed MPH | gust MPH | rain 1hr in | rain 24hr in | rain mn in | humidity % | barometer mb |
| 20260504173015 | 80 | 321 | 6.0 | 11.0 | 0.00 | 0.00 | 0.00 | 33 | 1002.0 |
| 20260504172507 | 80 | 282 | 4.0 | 16.0 | 0.00 | 0.00 | 0.00 | 34 | 1001.9 |
| 20260504172002 | 80 | 328 | 6.0 | 16.0 | 0.00 | 0.00 | 0.00 | 33 | 1001.9 |
| 20260504171512 | 80 | 314 | 6.0 | 12.0 | 0.00 | 0.00 | 0.00 | 35 | 1002.1 |
| 20260504171008 | 80 | 300 | 4.0 | 9.0 | 0.00 | 0.00 | 0.00 | 38 | 1002.1 |
| 20260504170510 | 78 | 240 | 1.0 | 9.0 | 0.00 | 0.00 | 0.00 | 37 | 1002.0 |
| 20260504151014 | 70 | 309 | 4.0 | 7.0 | 0.00 | 0.00 | 0.00 | 46 | 1002.2 |
| 20260504150507 | 70 | 324 | 2.0 | 7.0 | 0.00 | 0.00 | 0.00 | 44 | 1002.2 |
| 20260504141007 | 64 | 355 | 3.0 | 5.0 | 0.00 | 0.00 | 0.00 | 51 | 1002.6 |
| 20260504140511 | 64 | 302 | 2.0 | 6.0 | 0.00 | 0.00 | 0.00 | 55 | 1002.7 |
| 20260504130503 | 56 | 346 | 0.0 | 3.0 | 0.00 | 0.00 | 0.00 | 71 | 1002.5 |
| 20260504110506 | 47 | 277 | 0.0 | 0.0 | 0.00 | 0.00 | 0.00 | 82 | 1002.8 |
| 20260504100505 | 48 | 277 | 0.0 | 0.0 | 0.00 | 0.00 | 0.00 | 81 | 1002.7 |
| 20260504081513 | 50 | 277 | 0.0 | 0.0 | 0.00 | 0.00 | 0.00 | 75 | 1004.0 |
| 20260504081003 | 50 | 277 | 0.0 | 0.0 | 0.00 | 0.00 | 0.00 | 77 | 1004.1 |
| 20260504080511 | 50 | 277 | 0.0 | 0.0 | 0.00 | 0.00 | 0.00 | 78 | 1004.2 |
| 20260504050511 | 56 | 277 | 0.0 | 0.0 | 0.00 | 0.00 | 0.00 | 62 | 1006.8 |
| 20260504050016 | 56 | 277 | 0.0 | 0.0 | 0.00 | 0.00 | 0.00 | 61 | 1006.7 |
| 20260504045505 | 56 | 277 | 0.0 | 0.0 | 0.00 | 0.00 | 0.00 | 63 | 1006.8 |
| 20260504045007 | 56 | 277 | 0.0 | 0.0 | 0.00 | 0.00 | 0.00 | 63 | 1006.8 |
| 20260504044522 | 56 | 277 | 0.0 | 0.0 | 0.00 | 0.00 | 0.00 | 62 | 1006.9 |
| 20260504044007 | 56 | 277 | 0.0 | 0.0 | 0.00 | 0.00 | 0.00 | 63 | 1006.9 |
| 20260504043507 | 57 | 277 | 0.0 | 0.0 | 0.00 | 0.00 | 0.00 | 61 | 1007.0 |
| 20260504043025 | 57 | 277 | 0.0 | 0.0 | 0.00 | 0.00 | 0.00 | 60 | 1007.0 |
| 20260504042504 | 58 | 277 | 0.0 | 0.0 | 0.00 | 0.00 | 0.00 | 59 | 1007.0 |
| 20260504042007 | 58 | 277 | 0.0 | 0.0 | 0.00 | 0.00 | 0.00 | 57 | 1007.0 |
| 20260504041519 | 58 | 277 | 0.0 | 0.0 | 0.00 | 0.00 | 0.00 | 58 | 1007.1 |
| 20260504041007 | 59 | 277 | 0.0 | 0.0 | 0.00 | 0.00 | 0.00 | 57 | 1007.1 |
| 20260504040505 | 59 | 277 | 0.0 | 0.0 | 0.00 | 0.00 | 0.00 | 55 | 1007.2 |
| 20260504040015 | 59 | 277 | 0.0 | 0.0 | 0.00 | 0.00 | 0.00 | 56 | 1007.3 |
| 20260504035511 | 59 | 277 | 0.0 | 0.0 | 0.00 | 0.00 | 0.00 | 56 | 1007.4 |
| 20260504035010 | 58 | 277 | 0.0 | 0.0 | 0.00 | 0.00 | 0.00 | 58 | 1007.4 |
| 20260504034516 | 58 | 277 | 0.0 | 0.0 | 0.00 | 0.00 | 0.00 | 58 | 1007.4 |
| 20260504034010 | 58 | 277 | 0.0 | 0.0 | 0.00 | 0.00 | 0.00 | 59 | 1007.5 |
| 20260504033506 | 59 | 277 | 0.0 | 0.0 | 0.00 | 0.00 | 0.00 | 58 | 1007.6 |
| 20260504033022 | 59 | 277 | 0.0 | 0.0 | 0.00 | 0.00 | 0.00 | 58 | 1007.6 |
| 20260504032506 | 59 | 277 | 0.0 | 0.0 | 0.00 | 0.00 | 0.00 | 58 | 1007.5 |
| 20260504032008 | 60 | 277 | 0.0 | 0.0 | 0.00 | 0.00 | 0.00 | 56 | 1007.5 |
| 20260504031506 | 60 | 277 | 0.0 | 0.0 | 0.00 | 0.00 | 0.00 | 54 | 1007.6 |
| 20260504031002 | 61 | 277 | 0.0 | 0.0 | 0.00 | 0.00 | 0.00 | 53 | 1007.6 |
| 20260504030506 | 60 | 277 | 0.0 | 0.0 | 0.00 | 0.00 | 0.00 | 53 | 1007.6 |
| 20260504030007 | 61 | 277 | 0.0 | 0.0 | 0.00 | 0.00 | 0.00 | 54 | 1007.6 |
| 20260504025504 | 61 | 277 | 0.0 | 0.0 | 0.00 | 0.00 | 0.00 | 51 | 1007.7 |
| 20260504025005 | 62 | 277 | 0.0 | 0.0 | 0.00 | 0.00 | 0.00 | 52 | 1007.7 |
| 20260504024507 | 63 | 277 | 0.0 | 0.0 | 0.00 | 0.00 | 0.00 | 46 | 1007.7 |
| 20260504024006 | 64 | 277 | 0.0 | 0.0 | 0.00 | 0.00 | 0.00 | 45 | 1007.7 |
| 20260504023503 | 64 | 277 | 0.0 | 0.0 | 0.00 | 0.00 | 0.00 | 44 | 1007.8 |
| 20260504023003 | 64 | 277 | 0.0 | 0.0 | 0.00 | 0.00 | 0.00 | 44 | 1007.8 |
| 20260504022503 | 64 | 277 | 0.0 | 0.0 | 0.00 | 0.00 | 0.00 | 45 | 1007.8 |
| 20260504022004 | 64 | 277 | 0.0 | 0.0 | 0.00 | 0.00 | 0.00 | 44 | 1007.8 |
| 20260504021504 | 64 | 277 | 0.0 | 0.0 | 0.00 | 0.00 | 0.00 | 43 | 1007.9 |
| 20260504021009 | 65 | 277 | 0.0 | 0.0 | 0.00 | 0.00 | 0.00 | 42 | 1007.8 |
| 20260504020503 | 66 | 277 | 0.0 | 0.0 | 0.00 | 0.00 | 0.00 | 41 | 1007.9 |
| 20260504020007 | 66 | 277 | 0.0 | 0.0 | 0.00 | 0.00 | 0.00 | 41 | 1008.0 |
| 20260504015503 | 66 | 277 | 0.0 | 0.0 | 0.00 | 0.00 | 0.00 | 40 | 1008.0 |
| 20260504015003 | 66 | 277 | 0.0 | 0.0 | 0.00 | 0.00 | 0.00 | 40 | 1008.0 |
| 20260504014519 | 67 | 277 | 0.0 | 0.0 | 0.00 | 0.00 | 0.00 | 40 | 1008.1 |
| 20260504014003 | 67 | 277 | 0.0 | 0.0 | 0.00 | 0.00 | 0.00 | 40 | 1008.0 |
| 20260504013504 | 67 | 277 | 0.0 | 0.0 | 0.00 | 0.00 | 0.00 | 40 | 1008.0 |
| 20260504013015 | 67 | 277 | 0.0 | 0.0 | 0.00 | 0.00 | 0.00 | 39 | 1008.0 |
| 20260504012505 | 68 | 277 | 0.0 | 1.0 | 0.00 | 0.00 | 0.00 | 38 | 1008.0 |
| 20260504012003 | 68 | 277 | 0.0 | 1.0 | 0.00 | 0.00 | 0.00 | 38 | 1008.0 |
| 20260504011510 | 69 | 277 | 0.0 | 1.0 | 0.00 | 0.00 | 0.00 | 38 | 1008.0 |
| 20260504011004 | 69 | 268 | 0.0 | 2.0 | 0.00 | 0.00 | 0.00 | 38 | 1008.0 |
| 20260504010505 | 69 | 269 | 0.0 | 4.0 | 0.00 | 0.00 | 0.00 | 37 | 1008.1 |
| 20260504010006 | 70 | 271 | 0.0 | 4.0 | 0.00 | 0.00 | 0.00 | 37 | 1008.2 |
| 20260504005503 | 70 | 278 | 0.0 | 3.0 | 0.00 | 0.00 | 0.00 | 37 | 1008.2 |
| 20260504005003 | 70 | 281 | 0.0 | 3.0 | 0.00 | 0.00 | 0.00 | 36 | 1008.3 |
| 20260504004507 | 70 | 294 | 0.0 | 3.0 | 0.00 | 0.00 | 0.00 | 35 | 1008.3 |
| 20260504004005 | 71 | 303 | 0.0 | 3.0 | 0.00 | 0.00 | 0.00 | 36 | 1008.3 |
| 20260504003507 | 71 | 303 | 1.0 | 3.0 | 0.00 | 0.00 | 0.00 | 36 | 1008.3 |
| 20260504003004 | 71 | 274 | 0.0 | 3.0 | 0.00 | 0.00 | 0.00 | 34 | 1008.3 |
| 20260504002504 | 71 | 274 | 0.0 | 3.0 | 0.00 | 0.00 | 0.00 | 36 | 1008.3 |
| 20260504002006 | 71 | 327 | 0.0 | 4.0 | 0.00 | 0.00 | 0.00 | 36 | 1008.4 |
| 20260504001521 | 71 | 327 | 0.0 | 4.0 | 0.00 | 0.00 | 0.00 | 37 | 1008.5 |
| 20260504001003 | 72 | 310 | 0.0 | 4.0 | 0.00 | 0.00 | 0.00 | 36 | 1008.5 |
| 20260504000504 | 72 | 58 | 0.0 | 3.0 | 0.00 | 0.00 | 0.00 | 35 | 1008.5 |
| 20260504000037 | 72 | 265 | 0.0 | 3.0 | 0.00 | 0.00 | 0.00 | 33 | 1008.6 |
| 20260503235505 | 72 | 263 | 0.0 | 4.0 | 0.00 | 0.00 | 0.00 | 36 | 1008.6 |
| 20260503235003 | 73 | 263 | 0.0 | 7.0 | 0.00 | 0.00 | 0.00 | 34 | 1008.6 |
| 20260503234510 | 73 | 284 | 1.0 | 7.0 | 0.00 | 0.00 | 0.00 | 33 | 1008.6 |
| 20260503234004 | 73 | 265 | 1.0 | 6.0 | 0.00 | 0.00 | 0.00 | 33 | 1008.7 |
| 20260503233502 | 73 | 311 | 0.0 | 6.0 | 0.00 | 0.00 | 0.00 | 35 | 1008.7 |
| 20260503233019 | 74 | 335 | 2.0 | 4.0 | 0.00 | 0.00 | 0.00 | 35 | 1008.7 |
| 20260503232503 | 74 | 307 | 0.0 | 4.0 | 0.00 | 0.00 | 0.00 | 33 | 1008.7 |
| 20260503232007 | 74 | 249 | 0.0 | 4.0 | 0.00 | 0.00 | 0.00 | 32 | 1008.8 |
| 20260503231512 | 74 | 259 | 0.0 | 4.0 | 0.00 | 0.00 | 0.00 | 31 | 1008.8 |
| 20260503231006 | 75 | 260 | 1.0 | 4.0 | 0.00 | 0.00 | 0.00 | 34 | 1008.8 |
| 20260503230506 | 75 | 259 | 0.0 | 5.0 | 0.00 | 0.00 | 0.00 | 31 | 1008.8 |
| 20260503230008 | 75 | 273 | 1.0 | 7.0 | 0.00 | 0.00 | 0.00 | 32 | 1008.9 |
| 20260503225506 | 75 | 298 | 1.0 | 7.0 | 0.00 | 0.00 | 0.00 | 32 | 1008.9 |
| 20260503225007 | 75 | 325 | 2.0 | 7.0 | 0.00 | 0.00 | 0.00 | 33 | 1008.8 |
| 20260503224507 | 76 | 344 | 3.0 | 7.0 | 0.00 | 0.00 | 0.00 | 33 | 1008.8 |
| 20260503224007 | 76 | 333 | 1.0 | 5.0 | 0.00 | 0.00 | 0.00 | 35 | 1008.8 |
| 20260503223504 | 75 | 355 | 1.0 | 3.0 | 0.00 | 0.00 | 0.00 | 31 | 1008.8 |
| 20260503223010 | 76 | 351 | 0.0 | 2.0 | 0.00 | 0.00 | 0.00 | 32 | 1008.9 |
| 20260503222502 | 76 | 348 | 1.0 | 4.0 | 0.00 | 0.00 | 0.00 | 32 | 1008.9 |
| 20260503222006 | 76 | 348 | 0.0 | 5.0 | 0.00 | 0.00 | 0.00 | 31 | 1009.0 |
| 20260503221514 | 76 | 328 | 2.0 | 5.0 | 0.00 | 0.00 | 0.00 | 33 | 1009.0 |
| 20260503221006 | 76 | 347 | 0.0 | 4.0 | 0.00 | 0.00 | 0.00 | 32 | 1009.0 |
| 20260503220504 | 75 | 343 | 2.0 | 4.0 | 0.00 | 0.00 | 0.00 | 33 | 1008.9 |
| 20260503220021 | 75 | 320 | 2.0 | 3.0 | 0.00 | 0.00 | 0.00 | 33 | 1009.0 |
| 20260503215506 | 75 | 23 | 0.0 | 5.0 | 0.00 | 0.00 | 0.00 | 34 | 1009.0 |
| 20260503215007 | 75 | 345 | 0.0 | 5.0 | 0.00 | 0.00 | 0.00 | 33 | 1009.1 |
| 20260503214523 | 75 | 239 | 1.0 | 4.0 | 0.00 | 0.00 | 0.00 | 32 | 1009.3 |
| 20260503214003 | 77 | 322 | 1.0 | 6.0 | 0.00 | 0.00 | 0.00 | 31 | 1009.3 |
| 20260503213512 | 75 | 360 | 1.0 | 6.0 | 0.00 | 0.00 | 0.00 | 33 | 1009.4 |
| 20260503213010 | 75 | 246 | 2.0 | 9.0 | 0.00 | 0.00 | 0.00 | 34 | 1009.5 |
| 20260503212508 | 76 | 309 | 2.0 | 9.0 | 0.00 | 0.00 | 0.00 | 31 | 1009.6 |
| 20260503212005 | 76 | 309 | 3.0 | 9.0 | 0.00 | 0.00 | 0.00 | 33 | 1009.7 |
| 20260503211513 | 76 | 289 | 1.0 | 6.0 | 0.00 | 0.00 | 0.00 | 36 | 1009.7 |
| 20260503211007 | 76 | 227 | 2.0 | 8.0 | 0.00 | 0.00 | 0.00 | 30 | 1009.8 |
| 20260503210510 | 75 | 319 | 1.0 | 10.0 | 0.00 | 0.00 | 0.00 | 34 | 1009.9 |
| 20260503210035 | 75 | 300 | 5.0 | 11.0 | 0.00 | 0.00 | 0.00 | 33 | 1010.1 |
| 20260503205506 | 75 | 258 | 3.0 | 11.0 | 0.00 | 0.00 | 0.00 | 34 | 1010.1 |
| 20260503205007 | 75 | 252 | 1.0 | 8.0 | 0.00 | 0.00 | 0.00 | 36 | 1010.1 |
| 20260503204512 | 74 | 252 | 3.0 | 8.0 | 0.00 | 0.00 | 0.00 | 33 | 1010.2 |
| 20260503204008 | 74 | 305 | 1.0 | 7.0 | 0.00 | 0.00 | 0.00 | 30 | 1010.3 |
| 20260503203503 | 74 | 21 | 1.0 | 5.0 | 0.00 | 0.00 | 0.00 | 35 | 1010.4 |
| 20260503203020 | 75 | 107 | 0.0 | 5.0 | 0.00 | 0.00 | 0.00 | 34 | 1010.4 |
| 20260503202508 | 75 | 355 | 2.0 | 4.0 | 0.00 | 0.00 | 0.00 | 35 | 1010.5 |
| 20260503202004 | 74 | 232 | 1.0 | 4.0 | 0.00 | 0.00 | 0.00 | 37 | 1010.7 |
| 20260503201522 | 76 | 297 | 1.0 | 4.0 | 0.00 | 0.00 | 0.00 | 33 | 1010.7 |
| 20260503201005 | 75 | 350 | 1.0 | 8.0 | 0.00 | 0.00 | 0.00 | 37 | 1010.7 |
| 20260503200507 | 75 | 315 | 2.0 | 8.0 | 0.00 | 0.00 | 0.00 | 38 | 1010.8 |
| 20260503200018 | 76 | 5 | 4.0 | 8.0 | 0.00 | 0.00 | 0.00 | 35 | 1010.8 |
| 20260503195508 | 74 | 274 | 0.0 | 8.0 | 0.00 | 0.00 | 0.00 | 34 | 1010.7 |
| 20260503195006 | 74 | 88 | 2.0 | 8.0 | 0.00 | 0.00 | 0.00 | 34 | 1010.8 |
| 20260503194522 | 74 | 309 | 2.0 | 6.0 | 0.00 | 0.00 | 0.00 | 37 | 1010.8 |
| 20260503194004 | 73 | 332 | 1.0 | 8.0 | 0.00 | 0.00 | 0.00 | 39 | 1010.8 |
| 20260503193509 | 72 | 314 | 3.0 | 9.0 | 0.00 | 0.00 | 0.00 | 36 | 1010.8 |
| 20260503193022 | 72 | 311 | 1.0 | 9.0 | 0.00 | 0.00 | 0.00 | 34 | 1010.8 |
| 20260503192506 | 73 | 330 | 3.0 | 8.0 | 0.00 | 0.00 | 0.00 | 37 | 1010.9 |
| 20260503192008 | 73 | 350 | 2.0 | 9.0 | 0.00 | 0.00 | 0.00 | 35 | 1011.0 |
| 20260503191519 | 73 | 285 | 2.0 | 11.0 | 0.00 | 0.00 | 0.00 | 33 | 1011.0 |
| 20260503191009 | 73 | 323 | 7.0 | 11.0 | 0.00 | 0.00 | 0.00 | 34 | 1011.1 |
| 20260503190507 | 73 | 355 | 2.0 | 12.0 | 0.00 | 0.00 | 0.00 | 36 | 1011.1 |
| 20260503190017 | 73 | 331 | 6.0 | 12.0 | 0.00 | 0.00 | 0.00 | 36 | 1011.2 |
| 20260503185507 | 74 | 360 | 3.0 | 9.0 | 0.00 | 0.00 | 0.00 | 36 | 1011.1 |
| 20260503185009 | 74 | 346 | 3.0 | 9.0 | 0.00 | 0.00 | 0.00 | 37 | 1011.1 |
| 20260503184524 | 74 | 320 | 2.0 | 6.0 | 0.00 | 0.00 | 0.00 | 37 | 1011.1 |
| 20260503184011 | 73 | 344 | 2.0 | 9.0 | 0.00 | 0.00 | 0.00 | 34 | 1011.2 |
| 20260503183508 | 73 | 337 | 1.0 | 10.0 | 0.00 | 0.00 | 0.00 | 38 | 1011.3 |
| 20260503183023 | 73 | 314 | 4.0 | 10.0 | 0.00 | 0.00 | 0.00 | 38 | 1011.4 |
| 20260503182507 | 73 | 346 | 0.0 | 9.0 | 0.00 | 0.00 | 0.00 | 36 | 1011.4 |
| 20260503182007 | 73 | 294 | 3.0 | 8.0 | 0.00 | 0.00 | 0.00 | 38 | 1011.5 |
| 20260503181515 | 72 | 304 | 1.0 | 9.0 | 0.00 | 0.00 | 0.00 | 41 | 1011.4 |
| 20260503181008 | 72 | 30 | 2.0 | 9.0 | 0.00 | 0.00 | 0.00 | 34 | 1011.6 |
| 20260503180510 | 73 | 350 | 2.0 | 11.0 | 0.00 | 0.00 | 0.00 | 37 | 1011.7 |
| 20260503180026 | 72 | 336 | 3.0 | 12.0 | 0.00 | 0.00 | 0.00 | 38 | 1011.6 |
| 20260503175506 | 72 | 336 | 4.0 | 12.0 | 0.00 | 0.00 | 0.00 | 40 | 1011.8 |
| 20260503175008 | 72 | 306 | 3.0 | 11.0 | 0.00 | 0.00 | 0.00 | 38 | 1011.7 |
| 20260503174525 | 70 | 334 | 4.0 | 10.0 | 0.00 | 0.00 | 0.00 | 39 | 1011.7 |
| 20260503174010 | 71 | 315 | 4.0 | 10.0 | 0.00 | 0.00 | 0.00 | 39 | 1011.8 |
| 20260503173508 | 71 | 28 | 3.0 | 10.0 | 0.00 | 0.00 | 0.00 | 36 | 1011.8 |